When you browse on this site, cookies collect data to enhance your experience and personalize the content and advertising you see.
Visit our Privacy Policy to learn more. By continuing to use the site, you agree to this use of cookies and data.
EN

Hourly Weather Dobrich

Today, 10 August, Monday

Time Temperature Precipitation Wind Pressure Humidity
00:00 +20°C° 0 mm 2 mps 737 mmHg 68%
01:00 +20°C° 0 mm 2 mps 737 mmHg 68%
02:00 +19°C° 0 mm 2 mps 737 mmHg 68%
03:00 +19°C° 0 mm 3 mps 737 mmHg 69%
04:00 +19°C° 0 mm 3 mps 737 mmHg 69%
05:00 +18°C° 0 mm 3 mps 737 mmHg 69%
06:00 +21°C° 0 mm 4 mps 737 mmHg 61%
07:00 +23°C° 0 mm 4 mps 738 mmHg 53%
08:00 +27°C° 0 mm 4 mps 738 mmHg 45%
09:00 +28°C° 0 mm 4 mps 738 mmHg 41%
10:00 +30°C° 0 mm 4 mps 738 mmHg 36%
11:00 +32°C° 0 mm 4 mps 739 mmHg 32%
12:00 +32°C° 0 mm 4 mps 738 mmHg 32%
13:00 +32°C° 0 mm 4 mps 738 mmHg 32%
14:00 +32°C° 0 mm 4 mps 738 mmHg 32%
15:00 +32°C° 0 mm 4 mps 738 mmHg 32%
16:00 +32°C° 0 mm 4 mps 738 mmHg 32%
17:00 +32°C° 0 mm 4 mps 738 mmHg 32%
18:00 +28°C° 0 mm 3 mps 738 mmHg 42%
19:00 +26°C° 0 mm 3 mps 738 mmHg 52%
20:00 +22°C° 0 mm 3 mps 738 mmHg 61%
21:00 +21°C° 0 mm 2 mps 738 mmHg 66%
22:00 +21°C° 0 mm 2 mps 738 mmHg 72%
23:00 +21°C° 0 mm 1 mps 738 mmHg 77%

Tomorrow, 11 August, Tuesday

Time Temperature Precipitation Wind Pressure Humidity
00:00 +21°C° 0 mm 1 mps 738 mmHg 76%
01:00 +21°C° 0 mm 1 mps 738 mmHg 74%
02:00 +20°C° 0 mm 1 mps 738 mmHg 73%
03:00 +20°C° 0 mm 1 mps 738 mmHg 71%
04:00 +20°C° 0 mm 1 mps 738 mmHg 69%
05:00 +20°C° 0 mm 1 mps 738 mmHg 67%
06:00 +23°C° 0 mm 1 mps 738 mmHg 58%
07:00 +25°C° 0 mm 1 mps 739 mmHg 49%
08:00 +28°C° 0 mm 1 mps 739 mmHg 39%
09:00 +29°C° 0 mm 2 mps 739 mmHg 36%
10:00 +30°C° 0 mm 2 mps 739 mmHg 33%
11:00 +33°C° 0 mm 3 mps 740 mmHg 30%
12:00 +33°C° 0 mm 3 mps 739 mmHg 30%
13:00 +33°C° 0 mm 3 mps 739 mmHg 30%
14:00 +33°C° 0 mm 3 mps 739 mmHg 31%
15:00 +32°C° 0 mm 4 mps 739 mmHg 32%
16:00 +32°C° 0 mm 4 mps 739 mmHg 34%
17:00 +30°C° 0 mm 4 mps 738 mmHg 36%
18:00 +28°C° 0 mm 4 mps 738 mmHg 46%
19:00 +25°C° 0 mm 3 mps 738 mmHg 55%
20:00 +22°C° 0 mm 3 mps 738 mmHg 64%
21:00 +22°C° 0 mm 3 mps 738 mmHg 67%
22:00 +21°C° 0 mm 3 mps 738 mmHg 70%
23:00 +21°C° 0 mm 2 mps 738 mmHg 73%

Day after tomorrow, 12 August, Wednesday

Time Temperature Precipitation Wind Pressure Humidity
00:00 +21°C° 0 mm 2 mps 738 mmHg 71%
01:00 +21°C° 0 mm 2 mps 738 mmHg 69%
02:00 +20°C° 0 mm 2 mps 738 mmHg 66%
03:00 +21°C° 0 mm 2 mps 737 mmHg 63%
04:00 +22°C° 0 mm 1 mps 737 mmHg 60%
05:00 +23°C° 0 mm 1 mps 737 mmHg 56%
06:00 +24°C° 0 mm 1 mps 738 mmHg 51%
07:00 +26°C° 0 mm 2 mps 738 mmHg 45%
08:00 +28°C° 0 mm 2 mps 738 mmHg 40%
09:00 +29°C° 0 mm 2 mps 738 mmHg 38%
10:00 +30°C° 0 mm 3 mps 738 mmHg 36%
11:00 +33°C° 0 mm 4 mps 739 mmHg 34%
12:00 +33°C° 0 mm 4 mps 738 mmHg 34%
13:00 +33°C° 0 mm 5 mps 738 mmHg 34%
14:00 +33°C° 0 mm 5 mps 738 mmHg 34%
15:00 +32°C° 0 mm 5 mps 738 mmHg 36%
16:00 +32°C° 0 mm 5 mps 738 mmHg 38%
17:00 +30°C° 0 mm 5 mps 737 mmHg 40%
18:00 +28°C° 0 mm 4 mps 738 mmHg 49%
19:00 +25°C° 0 mm 3 mps 738 mmHg 58%
20:00 +23°C° 0 mm 2 mps 738 mmHg 66%
21:00 +23°C° 0 mm 2 mps 738 mmHg 69%
22:00 +21°C° 0 mm 2 mps 738 mmHg 71%
23:00 +21°C° 0 mm 1 mps 738 mmHg 74%

13 August, Thursday

Time Temperature Precipitation Wind Pressure Humidity
00:00 +21°C° 0 mm 1 mps 738 mmHg 72%
01:00 +21°C° 0 mm 1 mps 738 mmHg 71%
02:00 +21°C° 0 mm 1 mps 738 mmHg 70%
03:00 +21°C° 0 mm 1 mps 738 mmHg 71%
04:00 +20°C° 0 mm 1 mps 738 mmHg 72%
05:00 +19°C° 0 mm 2 mps 738 mmHg 73%
06:00 +21°C° 0 mm 2 mps 739 mmHg 67%
07:00 +24°C° 0 mm 2 mps 739 mmHg 61%
08:00 +26°C° 0 mm 3 mps 739 mmHg 55%
09:00 +28°C° 0.3 mm 3 mps 739 mmHg 51%
10:00 +29°C° 0.3 mm 4 mps 740 mmHg 47%
11:00 +30°C° 0.3 mm 4 mps 740 mmHg 43%
12:00 +29°C° 0.5 mm 4 mps 740 mmHg 47%
13:00 +29°C° 0.5 mm 4 mps 739 mmHg 52%
14:00 +28°C° 0.5 mm 4 mps 739 mmHg 56%
15:00 +28°C° 0.2 mm 5 mps 739 mmHg 55%
16:00 +28°C° 0.2 mm 5 mps 739 mmHg 55%
17:00 +27°C° 0.2 mm 5 mps 738 mmHg 54%
18:00 +26°C° 0 mm 4 mps 738 mmHg 61%
19:00 +24°C° 0 mm 3 mps 739 mmHg 68%
20:00 +21°C° 0 mm 3 mps 739 mmHg 74%
21:00 +20°C° 0 mm 2 mps 739 mmHg 78%
22:00 +19°C° 0 mm 2 mps 739 mmHg 81%
23:00 +19°C° 0 mm 2 mps 739 mmHg 84%

14 August, Friday

Time Temperature Precipitation Wind Pressure Humidity
00:00 +20°C° 0 mm 1 mps 739 mmHg 82%
01:00 +19°C° 0 mm 1 mps 739 mmHg 80%
02:00 +19°C° 0 mm 1 mps 739 mmHg 78%
03:00 +19°C° 0 mm 1 mps 739 mmHg 77%
04:00 +19°C° 0 mm 1 mps 739 mmHg 76%
05:00 +18°C° 0 mm 1 mps 738 mmHg 75%
06:00 +20°C° 0 mm 2 mps 739 mmHg 65%
07:00 +23°C° 0 mm 2 mps 739 mmHg 55%
08:00 +25°C° 0 mm 3 mps 740 mmHg 46%
09:00 +27°C° 0 mm 3 mps 740 mmHg 42%
10:00 +28°C° 0 mm 3 mps 740 mmHg 37%
11:00 +29°C° 0 mm 3 mps 740 mmHg 33%
12:00 +30°C° 0 mm 4 mps 740 mmHg 32%
13:00 +30°C° 0 mm 4 mps 739 mmHg 31%
14:00 +32°C° 0 mm 5 mps 739 mmHg 30%
15:00 +30°C° 0 mm 5 mps 739 mmHg 33%
16:00 +29°C° 0 mm 5 mps 739 mmHg 35%
17:00 +28°C° 0 mm 5 mps 738 mmHg 38%
18:00 +26°C° 0 mm 5 mps 739 mmHg 47%
19:00 +23°C° 0 mm 4 mps 739 mmHg 56%
20:00 +21°C° 0 mm 3 mps 739 mmHg 65%
21:00 +20°C° 0 mm 3 mps 739 mmHg 69%
22:00 +19°C° 0 mm 3 mps 739 mmHg 74%
23:00 +19°C° 0 mm 2 mps 739 mmHg 78%

15 August, Saturday

Time Temperature Precipitation Wind Pressure Humidity
00:00 +19°C° 0 mm 2 mps 739 mmHg 80%
01:00 +18°C° 0 mm 2 mps 739 mmHg 81%
02:00 +19°C° 0 mm 1 mps 739 mmHg 83%
03:00 +19°C° 0 mm 1 mps 739 mmHg 82%
04:00 +19°C° 0 mm 1 mps 738 mmHg 82%
05:00 +19°C° 0 mm 1 mps 738 mmHg 81%
06:00 +20°C° 0 mm 2 mps 738 mmHg 70%
07:00 +22°C° 0 mm 3 mps 739 mmHg 58%
08:00 +25°C° 0 mm 3 mps 739 mmHg 47%
09:00 +26°C° 0 mm 4 mps 739 mmHg 42%
10:00 +28°C° 0 mm 4 mps 739 mmHg 38%
11:00 +29°C° 0 mm 4 mps 739 mmHg 34%
12:00 +29°C° 0 mm 5 mps 739 mmHg 34%
13:00 +29°C° 0 mm 5 mps 739 mmHg 34%
14:00 +29°C° 0 mm 5 mps 738 mmHg 34%
15:00 +29°C° 0 mm 5 mps 738 mmHg 35%
16:00 +28°C° 0 mm 5 mps 738 mmHg 37%
17:00 +27°C° 0 mm 5 mps 737 mmHg 39%
18:00 +25°C° 0 mm 5 mps 737 mmHg 47%
19:00 +22°C° 0 mm 4 mps 737 mmHg 55%
20:00 +20°C° 0 mm 3 mps 737 mmHg 63%
21:00 +19°C° 0 mm 3 mps 737 mmHg 69%
22:00 +19°C° 0 mm 3 mps 737 mmHg 76%
23:00 +18°C° 0 mm 2 mps 737 mmHg 82%
Show more